RH
23 24 24 26 26 25 26 24 21 21 23 27 29 27 25 24 25 32 38 37 32 31 33 33 34 33 33 33 33 36 36 33 36 37 33 32 34 37 38 36 38 38
26 26 26 27 26 23 24 25 23 22 22 24 28 30 29 28 25 27 33 34 32 32 33 33 34 33 33 34 32 33 35 34 35 36 35 34 34 37 39 37 37 36
26 27 27 27 26 22 22 23 22 22 23 22 25 29 31 30 28 25 27 29 29 31 34 33 34 35 34 35 32 29 32 33 34 35 35 34 34 35 38 39 39 37
24 26 26 26 26 23 21 23 22 21 24 25 24 26 29 31 31 28 25 26 26 28 32 31 32 35 35 35 32 29 30 31 32 34 34 34 35 34 36 39 40 39
23 24 25 26 26 26 23 22 23 22 22 26 26 25 25 27 32 32 27 25 24 25 28 28 28 30 32 32 33 30 28 30 32 32 32 33 33 32 33 36 38 38
23 23 23 25 24 25 23 21 23 23 22 24 26 27 24 22 26 31 29 26 24 25 27 27 26 25 26 29 31 30 27 30 35 33 30 30 30 29 31 35 34 33
23 22 22 24 24 24 23 20 20 21 22 23 24 27 26 22 21 24 28 26 25 27 27 27 27 23 22 24 26 27 25 27 33 35 30 29 29 28 31 34 33 31
23 23 22 22 24 24 23 21 20 19 20 23 24 24 25 24 21 20 23 24 24 27 26 26 26 22 20 22 22 23 24 23 26 29 29 28 29 28 28 31 31 30
23 23 22 22 24 25 24 23 21 18 18 20 22 23 22 23 22 21 21 20 21 24 23 23 24 20 19 22 20 20 22 22 22 23 24 26 28 27 27 27 28 28
22 23 24 23 24 25 24 25 24 20 17 17 18 23 22 20 21 21 21 18 17 19 19 18 19 17 15 18 19 17 19 21 22 22 22 23 25 26 27 27 28 29
21 23 25 24 24 25 25 25 25 23 20 16 16 21 23 21 19 20 20 18 15 16 16 14 15 15 15 17 19 17 16 18 21 21 20 20 21 24 26 27 29 30
21 21 23 23 23 25 26 25 25 25 23 18 15 18 23 23 20 17 18 16 14 14 14 14 14 13 14 15 18 19 17 16 19 20 19 17 18 20 22 24 26 28
21 20 21 23 22 23 26 26 24 25 26 23 18 17 20 24 22 18 15 14 14 13 13 13 13 13 13 13 16 19 20 17 19 22 20 18 17 17 20 23 25 26
22 21 21 23 23 22 25 26 25 24 26 25 22 19 19 21 23 21 18 14 13 13 12 12 12 12 13 13 13 16 20 20 19 21 22 20 18 17 19 23 26 27
23 23 23 24 25 24 23 25 25 24 24 25 25 22 20 20 21 22 22 18 13 12 12 12 11 11 11 12 12 13 17 20 19 18 20 22 21 19 20 23 24 26
26 24 23 24 25 24 23 24 26 25 24 25 25 24 21 21 21 22 24 23 18 13 12 12 12 11 10 11 12 12 14 17 19 17 17 20 21 20 21 23 24 24
31 26 23 24 25 24 22 22 25 25 24 24 25 25 22 20 21 22 23 26 25 20 14 12 12 12 11 10 10 11 13 15 17 16 15 16 18 17 18 20 23 24
36 30 25 23 24 23 21 20 22 25 26 26 26 25 22 19 20 21 22 23 26 27 22 17 15 13 11 10 9 10 12 14 14 16 16 15 16 16 16 16 18 21
41 34 28 24 22 22 20 18 19 22 24 26 26 26 23 19 19 21 22 22 23 26 26 24 21 18 12 9 10 10 12 13 14 16 19 19 17 16 16 16 16 17
44 39 32 27 23 22 21 19 18 19 21 24 26 25 22 20 20 21 22 21 21 24 26 25 25 23 16 11 10 10 11 12 13 17 23 26 24 21 19 18 17 16
47 43 37 31 26 23 22 20 18 18 19 22 24 25 22 19 21 22 21 19 19 22 25 25 25 25 21 15 11 11 12 13 13 15 20 25 26 24 22 20 19 18
46 46 42 35 28 24 23 22 20 19 19 20 22 25 25 22 20 21 20 19 18 19 22 24 25 24 22 18 14 12 13 14 13 14 17 19 21 21 21 20 20 19
44 44 42 38 32 26 24 23 22 20 19 18 19 22 25 24 21 20 20 19 19 18 19 21 22 22 20 18 15 14 14 15 15 15 17 18 19 19 20 20 21 20
40 40 40 39 33 27 25 24 23 21 19 18 18 19 23 25 24 23 22 20 19 18 18 18 20 21 19 17 17 16 16 17 17 18 19 20 20 20 21 21 21 20
39 38 38 37 32 26 25 25 24 22 21 19 18 18 20 23 25 25 24 23 21 19 18 18 19 20 19 17 17 17 17 19 20 21 21 21 21 21 22 22 21 21
38 36 35 34 29 24 24 26 25 24 22 20 19 18 19 22 24 24 25 26 25 23 22 20 19 20 19 18 17 17 19 21 22 23 24 23 22 22 22 22 22 22